SCP
1 1 1 1 1 2 1 1 1 2 1 1 1 1 2 2 3 3 2 2 2 1 1 1 1 1 1 1 1 1 1 1 1 1 0 0 0 0 0 0 0 0 0
1 1 1 1 1 2 1 1 1 1 1 1 1 1 1 2 2 2 2 2 2 2 2 1 1 1 1 1 1 1 1 1 1 1 1 1 0 0 0 0 0 0 1
1 1 1 1 1 1 2 2 1 1 1 1 1 1 1 1 1 1 1 1 2 2 2 1 1 1 1 1 1 1 1 1 1 1 1 1 1 1 1 1 0 0 0
1 1 1 1 1 1 1 1 1 1 1 1 1 1 1 1 1 1 1 1 1 1 1 1 1 1 1 1 1 1 1 1 1 1 1 1 1 1 1 0 0 0 0
1 1 1 1 1 1 1 1 1 1 1 1 1 1 1 1 1 1 1 1 1 1 1 1 1 1 1 1 1 1 1 1 1 1 1 1 1 1 0 1 0 0 0
1 1 1 1 1 1 1 1 1 1 1 1 1 1 1 1 1 1 1 1 1 1 1 1 1 1 1 1 1 1 1 1 1 1 1 1 1 1 1 1 1 1 1
1 1 1 1 1 1 1 1 1 1 1 0 0 0 0 0 1 1 1 1 1 1 1 1 1 1 1 1 1 1 1 1 1 1 1 1 1 1 1 1 1 1 1
0 0 0 0 1 1 1 1 1 1 1 0 0 0 0 0 0 0 1 1 1 1 1 1 1 1 1 1 1 1 1 1 1 1 1 1 1 1 1 1 1 1 1
0 0 0 0 0 0 1 1 1 1 1 1 0 0 0 0 0 0 0 1 1 1 1 1 1 1 1 1 1 1 1 1 1 1 1 1 1 1 1 1 1 1 1
0 0 0 0 0 0 0 1 1 1 1 1 0 0 0 1 1 0 0 0 1 1 1 1 1 1 1 1 1 1 1 1 1 1 1 1 1 1 1 1 1 1 1
0 0 0 0 0 0 0 0 1 1 1 1 1 0 0 0 0 0 0 0 0 1 1 1 1 2 2 2 1 1 1 0 1 1 1 1 1 1 1 2 1 1 1
0 0 0 0 0 0 0 0 1 1 1 1 1 0 0 0 0 0 0 0 0 0 1 1 1 1 1 1 1 1 1 0 0 0 1 1 1 1 1 1 1 1 1
0 0 0 0 0 0 0 0 0 1 1 1 0 0 0 0 0 0 0 0 0 0 0 0 0 1 1 1 1 1 0 0 0 0 0 0 0 0 1 1 1 1 1
0 0 0 0 0 0 0 0 0 0 0 0 0 0 0 0 0 0 0 0 0 0 0 0 0 0 0 0 0 0 0 0 0 0 0 0 0 0 1 1 1 1 0
0 0 0 0 0 0 0 0 0 0 0 0 0 0 0 0 0 0 0 0 0 0 0 0 0 0 0 0 0 0 0 0 0 0 0 0 0 0 0 0 0 0 0
0 0 0 0 0 0 0 0 0 0 0 0 0 0 0 0 0 0 0 0 0 0 0 0 0 0 0 0 0 0 0 0 0 0 0 0 0 0 0 0 0 0 0
0 0 0 0 0 0 0 0 0 0 0 0 0 0 0 0 0 0 0 0 0 0 0 0 0 0 0 0 0 0 0 0 0 0 0 0 0 0 0 0 0 0 0
0 0 0 0 0 0 0 0 0 0 0 0 0 0 0 0 0 0 0 0 0 0 0 0 0 0 0 0 0 0 0 0 0 0 0 0 0 0 0 0 0 0 0
0 0 0 0 0 0 0 0 0 0 0 0 0 0 0 0 0 0 0 0 0 0 0 0 0 0 0 0 0 0 0 0 0 0 0 0 0 0 0 0 0 0 0
0 0 0 0 0 0 0 0 0 0 0 0 0 0 0 0 0 0 0 0 0 0 0 0 0 0 0 0 1 1 0 0 0 0 0 0 0 0 0 0 0 0 0
0 0 0 0 0 0 0 0 0 0 0 0 0 0 0 0 0 0 0 0 0 0 0 0 0 0 0 0 1 1 0 0 0 0 0 0 0 0 0 0 0 0 0
0 0 0 0 0 0 0 0 0 0 0 0 0 0 0 0 0 0 0 0 0 0 0 0 0 0 0 0 1 1 0 0 0 0 0 0 0 0 0 0 0 0 0
0 0 0 0 0 0 0 0 0 0 0 0 0 0 0 0 0 0 0 0 0 0 0 0 0 0 0 0 0 1 0 0 0 0 0 0 0 0 0 0 0 0 0
0 0 0 0 0 0 0 0 0 0 0 0 0 0 0 0 0 0 0 0 0 0 0 0 0 0 0 0 0 0 0 0 0 0 0 0 0 0 0 0 0 0 0
0 0 0 0 0 0 0 0 0 0 0 0 0 0 0 0 0 0 0 0 0 0 0 0 0 0 0 0 0 0 0 0 0 0 0 0 0 0 0 0 0 0 0
0 0 0 0 0 0 0 0 0 0 0 0 0 0 0 0 0 0 0 0 0 0 0 0 0 0 0 0 0 0 0 0 0 0 0 0 0 0 0 0 0 0 0
Wind_Speed
2 1 1 1 1 1 1 1 2 2 2 2 2 3 3 3 3 3 2 6 7 8 10 11 11 12 13 13 13 13 13 13 12 12 11 11 11 10 10 9 9 9 8
1 1 1 1 1 1 1 1 1 1 1 2 2 3 3 3 3 3 2 3 5 6 7 9 9 10 11 12 12 12 12 12 12 12 12 11 11 10 10 10 9 9 8
1 1 1 1 1 0 1 1 0 0 1 2 2 3 2 3 3 3 2 1 2 4 5 6 6 8 9 10 11 12 12 12 12 12 12 12 11 11 11 10 10 9 9
0 0 0 1 1 0 0 1 0 0 1 1 2 2 2 2 3 3 2 1 1 1 2 3 4 6 7 8 9 10 10 11 11 11 11 12 12 11 11 10 10 10 9
1 0 0 1 1 0 0 1 0 1 1 2 2 2 2 2 2 2 1 1 1 1 1 1 3 4 5 6 7 8 9 10 9 9 9 10 10 10 10 10 10 9 9
2 1 0 1 1 0 0 0 1 1 1 1 2 2 1 1 0 1 1 0 0 1 0 1 1 2 2 3 5 6 8 9 9 10 10 9 9 9 9 10 10 10 10
3 2 2 1 1 0 1 1 1 1 1 0 1 1 1 0 1 0 0 0 0 1 0 0 0 0 1 3 3 4 5 7 7 8 8 9 9 9 9 9 10 10 10
3 3 3 2 2 1 1 1 0 1 1 1 1 1 1 1 1 1 1 1 0 1 1 1 1 0 1 1 3 4 4 4 5 7 7 6 7 8 9 9 10 10 10
4 3 3 3 2 2 1 1 1 1 1 1 1 1 1 2 1 1 1 1 1 1 1 1 1 0 0 0 1 3 3 2 2 3 4 5 5 7 8 8 9 10 10
4 4 3 3 3 2 2 2 1 1 1 1 1 1 1 1 1 0 1 1 1 1 1 1 1 1 1 0 1 2 3 2 2 2 3 3 5 6 7 8 8 8 9
4 4 4 3 3 2 2 2 2 1 0 1 1 1 0 0 1 1 1 1 1 1 1 1 1 1 1 1 1 2 3 3 2 2 1 2 3 4 5 6 6 6 7
3 4 4 3 3 2 3 2 2 2 1 0 0 0 1 1 1 1 1 1 1 1 1 1 1 1 1 1 2 3 3 2 2 2 2 2 3 3 4 5 5 5 5
2 3 3 3 3 3 3 3 2 2 1 1 1 0 0 0 1 1 1 1 1 1 1 0 1 1 1 1 2 3 3 3 2 2 2 1 2 3 4 5 5 5 5
1 2 3 3 3 4 4 3 3 2 2 2 1 1 0 1 1 1 2 2 1 1 1 1 1 1 1 1 3 3 2 2 2 1 1 2 3 4 4 5 5 5 6
1 2 2 3 3 4 4 3 3 3 3 2 2 1 1 1 1 1 1 2 2 2 2 1 0 1 1 1 2 2 2 2 2 2 2 3 3 4 6 6 7 7 7
2 2 3 3 3 4 3 3 3 3 3 3 2 2 2 1 1 1 1 2 2 2 2 0 0 1 1 1 3 3 2 3 3 4 5 6 6 7 7 8 7 7 7
2 2 2 3 3 3 3 3 3 3 3 3 3 3 3 2 1 1 1 1 2 2 3 1 0 1 1 1 2 2 2 2 3 6 7 8 7 7 8 8 7 7 6
2 2 2 3 3 3 3 3 4 4 4 4 4 4 4 3 2 2 1 1 2 2 2 2 1 0 1 0 1 2 3 3 3 6 7 8 8 7 8 8 7 7 5
2 2 3 3 3 3 4 3 3 3 3 4 4 4 4 3 3 2 1 1 1 1 2 2 1 0 1 0 1 2 3 3 3 4 6 7 7 6 6 6 6 5 5
2 2 3 3 3 3 3 3 3 3 3 4 4 4 3 3 3 2 1 1 2 2 2 2 2 1 1 0 1 2 2 2 2 3 4 4 4 5 4 4 4 4 3
2 2 2 3 3 3 3 3 3 3 3 4 4 4 4 4 3 2 1 1 2 2 3 3 2 2 2 2 2 2 2 2 2 1 1 1 2 1 2 2 3 3 3
2 2 3 3 3 3 5 4 2 2 3 4 5 5 4 4 5 4 3 2 2 3 3 3 3 3 3 2 2 2 2 2 1 1 1 1 1 1 1 2 3 4 4
2 3 3 3 3 4 5 4 4 2 3 3 4 4 4 4 4 3 3 2 1 2 3 4 4 4 4 4 4 3 2 2 1 2 1 0 0 1 2 2 4 5 5
2 2 2 3 3 4 5 4 4 3 3 4 4 4 4 5 4 3 2 2 2 1 1 3 3 3 4 4 4 3 3 2 1 1 2 1 1 1 1 1 4 6 6
1 1 2 3 3 4 5 4 3 2 3 4 5 4 4 4 5 4 2 2 2 2 1 2 3 3 4 4 5 4 3 3 1 1 1 1 1 0 1 2 3 5 6
1 1 2 2 3 4 5 4 3 1 2 3 4 4 5 5 5 4 1 1 2 2 1 2 2 2 2 3 5 5 4 3 2 1 2 2 1 1 1 1 2 2 3
Wind_Direction
209 225 237 233 222 194 197 228 235 243 249 257 263 267 262 251 240 233 246 251 245 234 232 228 222 223 222 221 221 218 216 216 218 216 214 215 213 211 210 210 206 205 202
214 216 239 255 238 202 183 219 234 254 268 260 265 265 266 259 246 237 236 259 261 247 234 228 226 228 228 226 224 222 220 218 219 218 216 216 214 212 211 210 207 203 202
199 209 217 257 265 227 167 171 198 246 269 267 267 264 265 261 249 245 238 230 254 256 241 236 236 234 234 233 231 230 226 222 220 218 217 215 214 213 211 210 207 207 206
87 108 281 273 287 307 212 190 171 253 283 285 283 280 267 257 254 250 241 227 227 253 249 245 250 243 240 241 239 236 231 227 222 220 219 218 216 215 212 210 209 211 211
21 63 311 287 285 254 268 273 218 188 242 268 266 261 254 246 252 249 235 245 238 245 259 275 265 255 251 252 249 245 238 232 226 221 219 217 215 214 211 208 208 209 210
18 20 264 283 272 250 288 285 249 225 240 269 280 281 272 258 238 267 257 247 269 265 248 264 279 297 288 280 268 258 248 240 233 227 224 222 219 215 207 205 205 207 208
24 24 11 3 354 291 275 261 227 218 249 247 269 299 315 43 117 103 352 81 40 337 42 98 95 313 316 334 325 298 271 254 243 234 227 224 220 216 211 208 208 208 208
29 35 25 8 3 15 12 333 247 188 212 210 193 241 306 335 25 36 80 74 50 54 40 33 64 53 359 349 349 333 320 287 253 241 232 223 217 215 213 212 209 208 206
30 32 28 18 4 9 357 326 295 202 198 217 191 182 192 231 298 349 35 63 57 62 35 22 33 26 13 6 331 335 343 336 278 247 229 214 215 219 213 213 210 207 206
29 34 26 20 11 2 359 339 341 264 185 214 256 248 223 193 192 273 347 21 46 54 25 1 351 357 7 11 5 14 15 8 332 276 243 207 206 212 211 213 211 207 206
24 28 27 20 12 4 3 354 346 356 330 193 205 210 161 98 194 184 233 285 352 359 355 341 345 352 347 341 350 21 29 18 15 9 320 170 171 186 189 191 193 194 201
15 18 23 16 7 9 6 354 353 14 19 44 89 139 157 182 193 189 207 231 266 287 323 333 350 358 358 353 358 21 27 13 9 20 32 121 149 164 169 173 173 180 188
9 2 8 3 358 5 5 1 9 18 18 34 46 22 152 235 207 199 196 210 239 278 293 308 338 5 27 22 4 10 19 23 20 28 35 93 130 145 150 151 147 145 144
347 346 360 5 5 15 19 14 16 14 22 24 14 359 318 278 236 206 190 183 221 237 232 251 344 16 21 23 13 5 5 20 26 42 75 103 108 119 133 136 135 132 128
358 4 8 12 13 21 21 18 22 14 16 15 358 347 322 292 271 238 215 205 205 228 230 204 246 356 17 31 16 16 20 33 59 82 101 108 109 108 110 108 109 112 116
24 18 20 19 21 23 20 23 18 11 19 4 351 352 335 311 312 281 236 220 216 219 236 199 217 343 357 18 34 33 37 55 72 89 94 94 94 97 102 104 109 112 113
30 29 23 20 23 20 15 22 14 11 18 8 359 355 341 326 311 297 266 227 214 203 220 246 264 342 359 24 36 49 59 63 80 90 96 96 96 98 101 101 103 107 111
28 25 21 22 20 20 18 22 12 14 16 6 355 351 343 340 332 306 270 240 223 208 199 215 216 298 35 40 65 79 68 66 74 86 94 99 101 101 100 100 101 102 107
28 22 30 26 17 14 14 16 16 13 10 1 351 346 337 338 330 317 285 242 223 211 198 184 185 158 63 81 91 79 73 65 75 85 87 91 97 101 104 108 109 108 110
39 19 24 19 15 12 9 7 12 11 7 0 349 343 331 326 320 307 284 237 198 184 176 165 159 158 129 123 137 116 92 63 66 72 76 87 93 98 106 115 122 125 132
37 27 28 17 10 5 354 355 4 9 2 356 349 344 339 338 329 315 297 250 195 184 175 167 166 170 175 164 160 143 123 100 73 73 86 89 99 110 132 150 158 159 167
29 33 25 12 5 356 347 354 9 9 1 355 347 343 342 349 348 339 325 277 219 193 185 181 180 183 183 171 155 153 141 134 131 117 116 108 129 178 201 201 194 194 197
27 24 16 12 356 342 353 0 10 17 10 358 349 346 348 354 351 351 357 349 304 237 209 196 187 191 185 181 165 159 162 160 164 154 144 153 173 232 230 217 214 214 213
27 13 4 360 354 347 353 0 13 26 19 3 351 346 347 345 351 354 4 15 7 350 237 203 195 194 187 179 173 166 154 132 110 145 172 171 195 246 262 247 228 224 225
22 7 351 356 355 341 347 355 10 11 4 355 350 354 350 344 343 347 5 19 20 7 51 138 157 160 167 176 164 146 146 144 138 159 173 184 180 244 264 255 237 228 231
1 356 357 351 346 336 335 347 2 4 355 343 342 346 352 350 346 356 6 16 19 353 33 93 106 117 140 157 169 174 171 166 157 184 180 179 169 181 235 238 239 233 237